This demonstration page uses our WeatherBlox Daily Observations layout. Learn more.

Left ArrowRight Arrow

53.62937, 11.41316

Hourly Observations for May 9, 2019

Temp ( °F °C ) Dew Point ( °F °C ) Humidity (%) Winds ( mph kmh ) Pressure ( in mb ) Visibility ( mi km ) Precip ( " mm )
6:50 am 06:50 Mostly Sunny 48 9 48 9 100 100 VRB 2 4 29.41 996 6 9 N/A
7:20 am 07:20 Mostly Sunny 48 9 48 9 100 100 S 5 7 29.44 997 7 11 N/A
7:50 am 07:50 Mostly Cloudy with Mist and Fog 48 9 48 9 100 100 S 5 7 29.44 997 2 4 N/A
8:20 am 08:20 Mostly Cloudy with Mist and Fog 50 10 48 9 94 94 VRB 3 6 29.44 997 2 4 N/A
8:50 am 08:50 Mostly Cloudy 52 11 50 10 94 94 VRB 5 7 29.44 997 5 8 N/A
9:20 am 09:20 Mostly Cloudy 52 11 48 9 88 88 SSW 3 6 29.44 997 4 7 N/A
9:50 am 09:50 Mostly Cloudy 54 12 50 10 88 88 VRB 3 6 29.44 997 30 48 N/A
10:20 am 10:20 Mostly Cloudy 57 14 50 10 77 77 SSW 6 9 29.44 997 30 48 N/A
10:50 am 10:50 Mostly Cloudy 57 14 50 10 77 77 SW 8 13 29.47 998 30 48 N/A
11:20 am 11:20 Mostly Cloudy 55 13 48 9 77 77 SW 8 13 29.47 998 30 48 N/A
11:50 am 11:50 Mostly Cloudy 59 15 48 9 68 68 SW 9 15 29.47 998 30 48 N/A
12:20 pm 12:20 Mostly Cloudy 57 14 48 9 72 72 S 9 15 29.47 998 30 48 N/A
12:50 pm 12:50 Partly Cloudy 57 14 48 9 72 72 S 8 13 29.47 998 30 48 N/A
1:20 pm 13:20 Partly Cloudy 61 16 48 9 63 63 SW 8 13 29.47 998 30 48 N/A
1:50 pm 13:50 Partly Cloudy with Showers Nearby 61 16 48 9 63 63 SSW 8 13 29.47 998 30 48 N/A
2:20 pm 14:20 Partly Cloudy with Showers Nearby 61 16 45 7 55 55 SSE 8 13 29.47 998 30 48 N/A
2:50 pm 14:50 Partly Cloudy with Thunderstorms 55 13 46 8 72 72 WSW 8 13 29.50 999 30 48 N/A
3:20 pm 15:20 Partly Cloudy with Thunderstorms 54 12 48 9 82 82 W 5 7 29.50 999 30 48 N/A
3:50 pm 15:50 Partly Cloudy with Showers Nearby 57 14 46 8 67 67 VRB 3 6 29.50 999 30 48 N/A
4:20 pm 16:20 Partly Cloudy with Showers Nearby 61 16 45 7 55 55 VRB 1 2 29.50 999 30 48 N/A
4:50 pm 16:50 Partly Cloudy with Showers Nearby 63 17 48 9 59 59 VRB 2 4 29.50 999 30 48 N/A
5:20 pm 17:20 Partly Cloudy with Showers Nearby 61 16 50 10 68 68 SSW 6 9 29.50 999 30 48 N/A
5:50 pm 17:50 Partly Cloudy with Showers Nearby 59 15 48 9 68 68 S 7 11 29.50 999 30 48 N/A
6:20 pm 18:20 Partly Cloudy with Showers Nearby 59 15 46 8 63 63 SSE 7 11 29.50 999 30 48 N/A
6:50 pm 18:50 Partly Cloudy with Showers Nearby 59 15 46 8 63 63 SSE 6 9 29.50 999 30 48 N/A
7:20 pm 19:20 Partly Cloudy with Showers Nearby 59 15 46 8 63 63 VRB 2 4 29.50 999 30 48 N/A
7:50 pm 19:50 Mostly Sunny 59 15 46 8 63 63 S 3 6 29.50 999 7 11 N/A
8:20 pm 20:20 Mostly Sunny 57 14 46 8 67 67 ESE 3 6 29.53 1000 7 11 N/A
8:50 pm 20:50 Mostly Sunny 55 13 46 8 72 72 SE 3 6 29.53 1000 7 11 N/A

Powered by AerisWeather